Panama City Beach Gulf Coast Weather Center

Moon Phase Calendar



Online Cameras

 


      

Current Conditions in Panama City
11/30/2021 12:55:06 AM

48°F
Feels Like 46
Clear
Humidity
53%
Pressure
30.15"
Wind
5.8 mph (N)
Dew Point
32°F
UV Index
0/10 (Low)
Visibility
6 mi

Hourly Forecast

Date & Time Tue, Nov 30
12:00 AM
Tue, Nov 30
1:00 AM
Tue, Nov 30
2:00 AM
Tue, Nov 30
3:00 AM
Tue, Nov 30
4:00 AM
Tue, Nov 30
5:00 AM
Tue, Nov 30
6:00 AM
Tue, Nov 30
7:00 AM
Tue, Nov 30
8:00 AM
Tue, Nov 30
9:00 AM
Tue, Nov 30
10:00 AM
Tue, Nov 30
11:00 AM
Tue, Nov 30
12:00 PM
Tue, Nov 30
1:00 PM
Tue, Nov 30
2:00 PM
Tue, Nov 30
3:00 PM
Tue, Nov 30
4:00 PM
Tue, Nov 30
5:00 PM
Tue, Nov 30
6:00 PM
Tue, Nov 30
7:00 PM
Tue, Nov 30
8:00 PM
Tue, Nov 30
9:00 PM
Tue, Nov 30
10:00 PM
Tue, Nov 30
11:00 PM
Wed, Dec 1
12:00 AM
Wed, Dec 1
1:00 AM
Wed, Dec 1
2:00 AM
Wed, Dec 1
3:00 AM
Wed, Dec 1
4:00 AM
Wed, Dec 1
5:00 AM
Wed, Dec 1
6:00 AM
Wed, Dec 1
7:00 AM
Wed, Dec 1
8:00 AM
Wed, Dec 1
9:00 AM
Wed, Dec 1
10:00 AM
Wed, Dec 1
11:00 AM
Wed, Dec 1
12:00 PM
Wed, Dec 1
1:00 PM
Wed, Dec 1
2:00 PM
Wed, Dec 1
3:00 PM
Wed, Dec 1
4:00 PM
Wed, Dec 1
5:00 PM
Wed, Dec 1
6:00 PM
Wed, Dec 1
7:00 PM
Wed, Dec 1
8:00 PM
Wed, Dec 1
9:00 PM
Wed, Dec 1
10:00 PM
Wed, Dec 1
11:00 PM
Condition
Clear

Clear

Clear

Clear

Clear

Clear

Clear

Clear

Clear

Clear

Clear

Clear

Clear

Clear

Clear

Clear

Clear

Clear

Clear

Clear

Clear

Clouds

Clouds

Clouds

Clouds

Clouds

Clouds

Clouds

Clouds

Clouds

Clouds

Clouds

Clouds

Clouds

Clouds

Clouds

Clouds

Clouds

Clouds

Clouds

Clouds

Clouds

Clouds

Clear

Clear

Clear

Clear

Clear
Temperature 48°F48°F48°F48°F48°F47°F46°F47°F51°F55°F59°F62°F64°F65°F66°F65°F63°F59°F58°F57°F57°F56°F55°F55°F55°F54°F54°F54°F54°F53°F52°F53°F56°F61°F64°F66°F67°F67°F67°F66°F64°F62°F61°F61°F60°F59°F59°F58°F
Feels Like 45°F45°F45°F45°F45°F44°F43°F44°F47°F51°F55°F59°F61°F63°F63°F63°F61°F57°F56°F55°F54°F53°F53°F52°F52°F52°F51°F51°F51°F50°F50°F50°F54°F58°F62°F64°F65°F66°F65°F65°F63°F60°F60°F60°F59°F58°F58°F57°F
Cloudiness 1%1%1%1%0%0%0%0%0%0%0%0%0%5%3%2%2%3%3%1%3%13%29%30%28%42%43%52%64%68%59%46%46%40%39%34%32%69%84%75%73%62%55%3%2%1%1%1%
Visibility 6 mi6 mi6 mi6 mi6 mi6 mi6 mi6 mi6 mi6 mi6 mi6 mi6 mi6 mi6 mi6 mi6 mi6 mi6 mi6 mi6 mi6 mi6 mi6 mi6 mi6 mi6 mi6 mi6 mi6 mi6 mi6 mi6 mi6 mi6 mi6 mi6 mi6 mi6 mi6 mi6 mi6 mi6 mi6 mi6 mi6 mi6 mi6 mi
Precipitation 0%0%0%0%0%0%0%0%0%0%0%0%0%0%0%0%0%0%0%0%0%0%0%0%0%0%0%0%0%0%0%0%0%0%0%0%0%0%0%0%0%0%0%0%0%0%0%0%
Humidity 51%53%51%49%47%45%44%43%37%31%26%23%22%22%25%27%34%38%40%41%42%43%44%44%44%45%46%47%48%50%51%50%44%38%35%34%36%39%44%49%57%66%68%70%72%75%76%77%
Dew Point 31°F32°F31°F30°F29°F27°F25°F25°F25°F24°F24°F23°F24°F25°F28°F30°F34°F34°F34°F34°F34°F34°F34°F34°F33°F34°F34°F34°F35°F35°F35°F35°F35°F35°F36°F36°F38°F41°F44°F46°F49°F50°F50°F51°F51°F51°F51°F51°F
Pressure 30.15"30.15"30.15"30.15"30.18"30.18"30.21"30.21"30.24"30.24"30.24"30.24"30.18"30.18"30.18"30.15"30.18"30.18"30.18"30.21"30.21"30.21"30.21"30.21"30.18"30.18"30.18"30.18"30.18"30.21"30.21"30.24"30.24"30.27"30.24"30.24"30.21"30.18"30.15"30.15"30.15"30.15"30.18"30.18"30.21"30.21"30.18"30.18"
Wind Speed 6.8 mph6.9 mph6.7 mph6 mph6.3 mph6.7 mph6.7 mph5.8 mph5.9 mph5.9 mph5.1 mph4.5 mph3.9 mph2.1 mph2.5 mph2.6 mph2.4 mph2.6 mph3.2 mph3.3 mph3.8 mph4.7 mph4.9 mph4.6 mph4.2 mph3.8 mph3.8 mph3.5 mph3.1 mph4.2 mph4.7 mph5.4 mph5.3 mph5.1 mph4.5 mph4.4 mph5.4 mph6.8 mph7.2 mph7.2 mph6.9 mph3.9 mph2.1 mph0.8 mph3.1 mph2.5 mph1.9 mph2.2 mph
Wind
Direction
20°
NNE
20°
NNE
28°
NNE
30°
NNE
30°
NNE
31°
NNE
34°
NE
38°
NE
41°
NE
44°
NE
46°
NE
47°
NE
49°
NE

N
334°
NNW
339°
NNW
345°
NNW
16°
NNE
32°
NNE
48°
NE
66°
ENE
92°
E
104°
ESE
98°
E
95°
E
100°
E
98°
E
108°
ESE
77°
ENE
50°
NE
58°
ENE
55°
NE
68°
ENE
78°
ENE
104°
ESE
147°
SSE
177°
S
191°
S
199°
SSW
195°
SSW
188°
S
204°
SSW
243°
WSW
253°
WSW
353°
N
30°
NNE
103°
ESE
135°
SE

Daily Forecast

Date High Low Precip. Humidity
Today
Nov 30

Clear
66 °F
46 °F
0%
23%
Wednesday
Dec 1

Clouds
67 °F
52 °F
0%
34%
Thursday
Dec 2

Clear
69 °F
55 °F
0%
53%
Friday
Dec 3

Clouds
70 °F
58 °F
0%
57%
Saturday
Dec 4

Clouds
70 °F
60 °F
0%
63%
Sunday
Dec 5

Clouds
71 °F
60 °F
0%
61%
Monday
Dec 6

Rain
69 °F
61 °F
88%
73%
Tuesday
Dec 7

Clouds
67 °F
52 °F
0%
53%
Wednesday
Dec 8

Rain
73 °F
62 °F
20%
74%
Thursday
Dec 9

Rain
75 °F
69 °F
29%
82%
Friday
Dec 10

Rain
77 °F
68 °F
20%
71%
Saturday
Dec 11

Clouds
75 °F
67 °F
0%
78%
Sunday
Dec 12

Clear
77 °F
67 °F
0%
68%
Monday
Dec 13

Clear
77 °F
65 °F
0%
62%
Tuesday
Dec 14

Clear
75 °F
63 °F
0%
63%
Wednesday
Dec 15

Clear
75 °F
63 °F
0%
60%

Temperature 8-14 Day Outlook



Precipitation 8-14 Day Outlook




Quick Links
Panama City Beach Gulf Coast News
Panama City Beach Gulf Coast Photos
Panama City Beach Gulf Coast Videos




About Us
Contact Us
Site Map
Search Site
Advertise With Us
   
PanamaCity.USGulf.info
THE PANAMA CITY BEACH GULF COAST WEBSITE

Copyright 2021, Coastal Town
Privacy    |    Legal